Flag for U.S.A. Weather past 2 weeks in Cape Canaveral, Florida, U.S.A.

Now
79 °F

Sunny.


Feels Like: 82 °F
Forecast: 73 / 82 °F
Wind: 8 mph from East

Location: Cape Kennedy

Current Time: Jun 3, 2015 at 7:53:53 PM

Latest Report: Jun 3, 2015 at 6:58 PM


Visibility: 10 mi

Pressure: 29.91 "Hg

Humidity: 69%

Dew point: 68 °F

Location of Cape CanaveralLocation

Historic Weather in Cape Canaveral — Graph

°F

Cape Canaveral temperature yesterday

Maximum temperature yesterday: 83 °F (at 12:58 PM)
Minimum temperature yesterday: 71 °F (at 6:58 AM)
Average temperature yesterday: 75 °F

Past Weeks' High & Low Weather Summary

 TemperatureHumidityPressure
High90 °F (May 21, 1:58 PM)100% (Jun 2, 5:58 AM)30.25 "Hg (Jun 2, 5:58 AM)
Low68 °F (May 23, 6:58 AM)50% (May 21, 1:58 PM)29.91 "Hg (Jun 3, 6:58 PM)
Average79 °F75%30.08 "Hg
* Reported May 19 6:58 PM — Jun 3 6:58 PM, Cape Canaveral, Weather by CustomWeather, © 2015

Note: Actual official high and low records may vary slightly from our data, if they occured in-between our weather recording intervals... More about our weather records

Advertising

Cape Canaveral weather history for previous 24 hours

 ConditionsComfort  
Time TempWeatherWind HumidityBarometerVisibility
6:58 PM
Wed, Jun 3
79 °FSunny.8 mph69%29.91 "Hg10 mi
5:58 PM80 °FSunny.7 mph67%29.92 "Hg10 mi
4:58 PM81 °FSunny.10 mph67%29.92 "Hg10 mi
3:58 PM81 °FSunny.10 mph67%29.93 "Hg10 mi
2:58 PM81 °FSunny.8 mph66%29.95 "Hg10 mi
1:58 PM81 °FPassing clouds.8 mph67%29.97 "Hg10 mi
12:58 PM80 °FPassing clouds.3 mph71%29.98 "Hg10 mi
11:58 AM78 °FPassing clouds.6 mph78%29.99 "Hg10 mi
10:58 AM76 °FPassing clouds.7 mph87%29.98 "Hg10 mi
9:58 AM73 °FSunny.6 mph94%29.98 "Hg10 mi
9:02 AM72 °FStrong thunderstorms. Fog.18 mph94%29.97 "Hg1 mi
7:58 AM74 °FSunny.7 mph90%29.95 "Hg10 mi
6:58 AM73 °FClear.2 mph90%29.95 "Hg10 mi
5:58 AM71 °FClear.3 mph92%29.94 "Hg10 mi
4:58 AM71 °FClear.2 mph90%29.94 "Hg10 mi
3:58 AM71 °FPassing clouds.3 mph90%29.96 "Hg10 mi
2:58 AM71 °FPassing clouds.6 mph91%29.95 "Hg10 mi
2:03 AM70 °FPassing clouds.6 mph94%29.97 "Hg10 mi
1:58 AM70 °FPassing clouds.7 mph92%29.98 "Hg10 mi
12:58 AM71 °FClear.5 mph88%29.98 "Hg10 mi
11:58 PM
Tue, Jun 2
71 °FClear.5 mph84%29.99 "Hg10 mi
10:58 PM72 °FClear.9 mph87%29.99 "Hg10 mi
9:58 PM72 °FClear.9 mph88%29.98 "Hg10 mi
8:58 PM72 °FPassing clouds.6 mph93%29.97 "Hg10 mi
7:58 PM71 °FSunny.5 mph94%29.98 "Hg10 mi
Weather by CustomWeather, © 2015

See weather overviewHow to use our weather pages